Content
SEND FEEDBACK

Daily
Averages
Monthly
Summary
Philippines

QUEZON CITY, PHILIPPINES


Home > Asia > Philippines
Elevation: 46 meters     Latitude: 14 39N     Longitude: 121 03E

WEATHER
 
SELECT A DAY
Number of Records: 172,756;   Date Range: 7/1/96 - 9/18/14
 
SHARE

PRINT THIS DATA

[ ← Previous Day ]
WEATHER ALMANAC - 15 MARCH, 2013
[ Next Day → ]
[ °F ]   °C
Weather ElementAverageHighLow
Temperature28.8 °C31.1 °C (5:00 pm)26 °C (4:00 am)
Dewpoint21.9 °C23.3 °C (5:00 am)21 °C (9:00 am)
Humidity65.3 %83 % (4:00 am)47 % (5:00 pm)
Barometer1014.2 hPa1016.6 hPa (11:00 am)1012.2 hPa (3:00 pm)
Wind Speed13.8 km/h18.5 km/h (11:00 am)
Weather ElementAverage
Visibility10 km
Wind DirectionESE (104.7 °)

Weather ElementTotal
Precipitation---
Cooling Degree Days10.2 (Base 18.3)
Growing Degree Days18.6 (Base 10)
Averaged from 30 records on 15 March, 2013
WEATHER CONDITIONS BREAKOUT
WIND DIRECTION BREAKOUT
WEATHER BY HOUR - 15 MARCH, 2013
[ °F ]   °C
Local TimeTemperatureDewpointHumidityBarometerVisibilityWind DirectionWind SpeedGust SpeedPrecipitationEventsConditions
1:00 AM28 °C23 °C74 %1013.2 hPa10 kmVariable13 km/hPartly Cloudy
2:00 AM27 °C23 °C79 %1013.2 hPa10 kmESE (120°)5.6 km/hPartly Cloudy
3:00 AM27 °C23 °C79 %1013.2 hPa10 kmESE (110°)7.4 km/hPartly Cloudy
4:00 AM26 °C23 °C83 %1013.2 hPa10 kmEast (80°)5.6 km/hPartly Cloudy
5:00 AM26.7 °C23.3 °C77 %1013.9 hPa9.7 kmESE (110°)10.8 km/hHaze
5:00 AM27 °C23 °C79 %1013.2 hPa10 kmESE (110°)11.1 km/hPartly Cloudy
6:00 AM27 °C23 °C79 %1014.2 hPa10 kmEast (100°)9.3 km/hPartly Cloudy
7:00 AM27 °C22 °C74 %1015.2 hPa10 kmEast (100°)11.1 km/hScattered Clouds
8:00 AM27.8 °C21.7 °C61 %1016.3 hPa9.7 kmEast (100°)14.3 km/hHaze
8:00 AM28 °C22 °C70 %1016.3 hPa10 kmEast (100°)11.1 km/hPartly Cloudy
9:00 AM30 °C21 °C58 %1016.3 hPa10 kmEast (100°)16.7 km/hPartly Cloudy
10:00 AM31 °C22 °C58 %1016.3 hPa10 kmEast (90°)13 km/hPartly Cloudy
11:00 AM30.6 °C22.2 °C54 %1016.6 hPa9.7 kmSE (130°)18 km/hHaze
11:00 AM30 °C22 °C62 %1016.3 hPa10 kmSE (130°)18.5 km/hScattered Clouds
12:00 PM30 °C21 °C58 %1015.2 hPa10 kmEast (100°)18.5 km/hScattered Clouds
1:00 PM31 °C21 °C55 %1014.2 hPa10 kmEast (100°)14.8 km/hScattered Clouds
2:00 PM30.6 °C21.1 °C48 %1013.9 hPa9.7 kmSE (130°)14.3 km/hHaze
2:00 PM31 °C21 °C55 %1014.2 hPa10 kmSE (130°)14.8 km/hMostly Cloudy
3:00 PM31 °C21 °C55 %1012.2 hPa10 kmEast (100°)18.5 km/hMostly Cloudy
4:00 PM31 °C22 °C58 %1012.2 hPa10 kmESE (120°)18.5 km/hMostly Cloudy
5:00 PM31.1 °C21.1 °C47 %1012.9 hPa9.7 kmEast (90°)18 km/hPartly Cloudy
5:00 PM31 °C23 °C62 %1012.2 hPa10 kmEast (90°)18.5 km/hScattered Clouds
6:00 PM30 °C22 °C62 %1013.2 hPa10 kmEast (100°)14.8 km/hScattered Clouds
7:00 PM29 °C21 °C62 %1013.2 hPa10 kmESE (110°)14.8 km/hScattered Clouds
8:00 PM27.8 °C21.7 °C60 %1014.2 hPa9.7 kmESE (110°)14.3 km/hPartly Cloudy
8:00 PM28 °C21 °C66 %1014.2 hPa10 kmESE (110°)14.8 km/hPartly Cloudy
9:00 PM28 °C22 °C70 %1015.2 hPa10 kmESE (110°)14.8 km/hPartly Cloudy
10:00 PM27 °C22 °C74 %1015.2 hPa10 kmESE (120°)11.1 km/hPartly Cloudy
11:00 PM27.2 °C21.7 °C66 %1014.2 hPa9.7 kmESE (120°)14.3 km/hPartly Cloudy
11:00 PM27 °C22 °C74 %1015.2 hPa10 kmESE (120°)16.7 km/hScattered Clouds
Hourly data recorded from RPLL, located 0 kilometers away from Quezon City, Philippines







STORIES FROM OUR PARTNERS